Starlink 30800

operational
NORAD ID: 58206 Int'l Des: 2023-170 Owner: SPXS Country: US Constellation: starlink
LEOCIRCULAR

Starlink 30800について

説明を読み込み中...

リアルタイム位置

3D地球を読み込み中...

次回通過

高度履歴

Altitude vs Time

uPlot chart will show altitude changes over time

軌道要素

1 58206U 23170A 25303.70597626 .00001880 00000-0 15420-3 0 9991
2 58206 43.0027 182.4644 0000958 279.1713 80.9021 15.02536066110725
Epoch: Oct 30, 2025 • Age: 23 hours

現在のステータス

高度 559.2 km
速度 7.59 km/s
衛星直下点 22.48°N, 51.97°E
打ち上げ日 Nov 4, 2023
運用期間 1.9 years
タイプ internet

技術仕様

分類 Payload
質量 730.00 kg
乾燥質量 700.00 kg
総質量 730.00 kg
長さ 0.30 m
直径 4.10 m
スパン 29.00 m
形状 Box + pan
製造者 SPXS
バスタイプ Starlink V2M
フェーズステータス In Orbit
所有者/国 SPXS/US

大規模コンステレーション

Loading constellations...